{"data":{"norad_id":62118,"intl_designator":"2024-222E","name":"STARLINK-32549","alt_names":[],"object_type":"PAYLOAD","status":"ACTIVE","operator":null,"country":"US","launch_date":"2024-11-27","launch_site_code":"AFETR","launch_vehicle":null,"mission":null,"orbit_class":"UNKNOWN","rcs_meters":null,"size_class":null,"mass_kg":null,"dimensions":null,"purposes":["comms"],"wikipedia_slug":null,"has_3d_model":false,"image_url":null,"decayed_at":null,"tle_current":{"epoch":"2026-05-25T03:06:11.852640Z","epoch_age_seconds":67886,"freshness":"FRESH","line1":"1 62118U 24222E   26145.12930385  .00023119  00000+0  84622-3 0  9999","line2":"2 62118  42.9996  64.1323 0000653 240.2813 119.7974 15.27610819 84507","mean_motion":15.27610819,"eccentricity":6.53e-5,"inclination_deg":42.9996,"raan_deg":64.1323,"arg_perigee_deg":240.2813,"mean_anomaly_deg":119.7974,"bstar":0.00084622,"rev_number":8450,"period_min":94.26484691583,"perigee_km":482.50878499198,"apogee_km":483.40484384414,"semimajor_km":6861.0938144181,"source":"CELESTRAK","updated_at":"2026-05-25T13:38:19.562921Z"}}}